This is the latest recevied weather packets stored in our database for station/object EA1BQO-1. If no packets are shown the sender has not sent any weather packets the latest 10 day(s).
| Time | Temp. | Humidity | Pressure | Rain* | Wind** | Luminosity | Snow |
|---|---|---|---|---|---|---|---|
| 1777465004 | 15° C | 99% | 1004.1 hPa | 0.25 mm | - | - | - |
| 1777464404 | 14.44° C | 99% | 1004 hPa | 0.51 mm | - | - | - |
| 1777463804 | 14.44° C | 99% | 1004.1 hPa | 0.51 mm | - | - | - |
| 1777463204 | 13.89° C | 99% | 1004.2 hPa | 0.76 mm | - | - | - |
| 1777462604 | 13.33° C | 99% | 1004.3 hPa | 1.02 mm | - | - | - |
| 1777462004 | 12.78° C | 99% | 1004.4 hPa | 1.02 mm | - | - | - |
| 1777461404 | 12.78° C | 99% | 1004.3 hPa | 1.27 mm | - | - | - |
| 1777460804 | 12.78° C | 99% | 1004.4 hPa | 1.78 mm | - | - | - |
| 1777460204 | 12.78° C | 99% | 1004.3 hPa | 2.79 mm | - | - | - |
| 1777459604 | 12.78° C | 99% | 1004.3 hPa | 4.06 mm | - | - | - |
| 1777459004 | 12.22° C | 99% | 1004.3 hPa | 4.32 mm | - | - | - |
| 1777458404 | 12.22° C | 99% | 1004.3 hPa | 4.32 mm | - | - | - |
| 1777457804 | 12.22° C | 99% | 1004.2 hPa | 4.06 mm | - | - | - |
| 1777457204 | 12.22° C | 99% | 1004.3 hPa | 3.56 mm | - | - | - |
| 1777456604 | 12.22° C | 99% | 1004.2 hPa | 2.29 mm | - | - | - |
| 1777456004 | 12.78° C | 98% | 1004.2 hPa | 0.76 mm | - | - | - |
| 1777455404 | 12.78° C | 96% | 1004.3 hPa | 0 mm | - | - | - |
| 1777454804 | 13.33° C | 95% | 1004.1 hPa | 0 mm | - | - | - |
| 1777454204 | 13.33° C | 93% | 1003.9 hPa | 0 mm | - | - | - |
| 1777453604 | 13.33° C | 91% | 1003.8 hPa | 0 mm | - | - | - |
| 1777453004 | 13.33° C | 90% | 1003.8 hPa | 0 mm | - | - | - |
| 1777452404 | 13.33° C | 89% | 1003.8 hPa | 0 mm | - | - | - |
| 1777451804 | 13.33° C | 87% | 1003.8 hPa | 0 mm | - | - | - |
| 1777451204 | 13.33° C | 87% | 1003.7 hPa | 0 mm | - | - | - |
| 1777450604 | 13.89° C | 90% | 1003.5 hPa | 0 mm | - | - | - |
* Rain latest hour (hover to see other rain measurements)
** Current wind speed in m/s (hover to see current wind gust speed)